D2913 Weather Reports


Display with metric or nautical units.
time (UTC)temp
F
wind
direction
speed
MPH
gust
MPH
rain 1hr
in
rain 24hr
in
rain mn
in
humidity
%
barometer
mb
20260902134017 76 0 0.0 0.0 0.00 0.00 0.00 76 1022.1
20260902133517 76 0 0.0 0.0 0.00 0.00 0.00 75 1022.1
20260902133017 75 0 0.0 0.0 0.00 0.00 0.00 76 1022.0
20260902132518 75 0 0.0 0.0 0.00 0.00 0.00 76 1021.9
20260902131516 75 0 0.0 0.0 0.00 0.00 0.00 76 1022.0
20260902130517 75 0 0.0 0.0 0.00 0.00 0.00 77 1022.1
20260902130017 76 0 0.0 0.0 0.00 0.00 0.00 77 1022.2
20260902125017 76 0 0.0 0.0 0.00 0.00 0.00 77 1022.2
20260902124016 75 0 0.0 0.0 0.00 0.00 0.00 77 1022.1
20260902123518 75 0 0.0 0.0 0.00 0.00 0.00 77 1022.2
20260902123016 74 0 0.0 0.0 0.00 0.00 0.00 78 1022.2
20260902122517 74 0 0.0 0.0 0.00 0.00 0.00 79 1022.2
20260902122017 74 0 0.0 0.0 0.00 0.00 0.00 79 1022.4
20260902121517 75 0 0.0 0.0 0.00 0.00 0.00 79 1022.6
20260902121017 75 0 0.0 0.0 0.00 0.00 0.00 79 1022.6
20260902120018 75 0 0.0 0.0 0.00 0.00 0.00 79 1022.6
20260902115517 74 0 0.0 0.0 0.00 0.00 0.00 80 1022.6
20260902114517 74 0 0.0 0.0 0.00 0.00 0.00 80 1022.5
20260902114017 73 0 0.0 0.0 0.00 0.00 0.00 80 1022.4
20260902113517 73 0 0.0 0.0 0.00 0.00 0.00 81 1022.6
20260902113017 73 0 0.0 0.0 0.00 0.00 0.00 81 1022.8
20260902112521 73 0 0.0 0.0 0.00 0.00 0.00 82 1022.7
20260902112019 73 0 0.0 0.0 0.00 0.00 0.00 82 1022.7
20260902111517 73 0 0.0 0.0 0.00 0.00 0.00 82 1022.7
20260902110517 72 0 0.0 0.0 0.00 0.00 0.00 83 1022.6
20260902105517 72 0 0.0 0.0 0.00 0.00 0.00 83 1022.6
20260902105016 72 0 0.0 0.0 0.00 0.00 0.00 83 1022.4
20260902104518 72 0 0.0 0.0 0.00 0.00 0.00 83 1022.6
20260902104018 72 0 0.0 0.0 0.00 0.00 0.00 82 1022.7
20260902103517 73 0 0.0 0.0 0.00 0.00 0.00 83 1022.7
20260902103017 73 0 0.0 0.0 0.00 0.00 0.00 83 1022.7
20260902102517 72 0 0.0 0.0 0.00 0.00 0.00 83 1022.8
20260902102017 72 0 0.0 0.0 0.00 0.00 0.00 83 1022.8
20260902101017 72 0 0.0 0.0 0.00 0.00 0.00 83 1022.9
20260902100517 72 0 0.0 0.0 0.00 0.00 0.00 83 1022.8
20260902100017 72 0 0.0 0.0 0.00 0.00 0.00 84 1022.9
20260902095518 71 0 0.0 0.0 0.00 0.00 0.00 85 1022.9
20260902094517 70 0 0.0 0.0 0.00 0.00 0.00 84 1022.7
20260902094018 70 0 0.0 0.0 0.00 0.00 0.00 85 1022.6
20260902093517 70 0 0.0 0.0 0.00 0.00 0.00 85 1022.7
20260902092517 69 0 0.0 0.0 0.00 0.00 0.00 86 1022.6
20260902091518 68 0 0.0 0.0 0.00 0.00 0.00 86 1022.5
20260902091017 68 0 0.0 0.0 0.00 0.00 0.00 86 1022.4
20260902090517 68 0 0.0 0.0 0.00 0.00 0.00 86 1022.4
20260902090017 67 0 0.0 0.0 0.00 0.00 0.00 87 1022.2
20260902085516 67 0 0.0 0.0 0.00 0.00 0.00 88 1022.4
20260902085017 67 0 0.0 0.0 0.00 0.00 0.00 87 1022.2
20260902084518 67 0 0.0 0.0 0.00 0.00 0.00 88 1022.4
20260902084018 67 0 0.0 0.0 0.00 0.00 0.00 88 1022.4
20260902083541 67 0 0.0 0.0 0.00 0.00 0.00 88 1022.4
20260902083043 67 0 0.0 0.0 0.00 0.00 0.00 88 1022.4
20260902082517 67 0 0.0 0.0 0.00 0.00 0.00 88 1022.4
20260902082017 67 0 0.0 0.0 0.00 0.00 0.00 88 1022.2
20260902081517 67 0 0.0 0.0 0.00 0.00 0.00 89 1022.2
20260902081017 66 0 0.0 0.0 0.00 0.00 0.00 89 1022.0
20260902080517 66 0 0.0 0.0 0.00 0.00 0.00 89 1021.9
20260902080017 66 0 0.0 0.0 0.00 0.00 0.00 89 1021.9
20260902075517 65 0 0.0 0.0 0.00 0.00 0.00 89 1022.0
20260902075018 65 0 0.0 0.0 0.00 0.00 0.00 90 1022.0
20260902074517 65 0 0.0 0.0 0.00 0.00 0.00 90 1021.9
20260902074019 64 0 0.0 0.0 0.00 0.00 0.00 90 1021.8
20260902073517 64 0 0.0 0.0 0.00 0.00 0.00 90 1021.8
20260902073017 64 0 0.0 0.0 0.00 0.00 0.00 90 1021.8
20260902072517 63 0 0.0 0.0 0.00 0.00 0.00 90 1021.8
20260902072017 63 0 0.0 0.0 0.00 0.00 0.00 90 1021.7
20260902071518 63 0 0.0 0.0 0.00 0.00 0.00 90 1021.8
20260902071017 62 0 0.0 0.0 0.00 0.00 0.00 90 1021.6
20260902070518 61 0 0.0 0.0 0.00 0.00 0.00 90 1021.6
20260902070018 61 0 0.0 0.0 0.00 0.00 0.00 89 1021.5
20260902065017 59 0 0.0 0.0 0.00 0.00 0.00 84 1021.2
20260902064517 58 0 0.0 0.0 0.00 0.00 0.00 78 1021.0
20260902064017 57 0 0.0 0.0 0.00 0.00 0.00 75 1020.9
20260902063531 56 0 0.0 0.0 0.00 0.00 0.00 73 1020.7
20260902063017 55 0 0.0 0.0 0.00 0.00 0.00 72 1020.7
20260902062518 55 0 0.0 0.0 0.00 0.00 0.00 72 1020.3
20260902062017 54 0 0.0 0.0 0.00 0.00 0.00 72 1020.2
20260902061517 53 0 0.0 0.0 0.00 0.00 0.00 72 1020.2
20260902061018 53 0 0.0 0.0 0.00 0.00 0.00 72 1020.1
20260902060517 52 0 0.0 0.0 0.00 0.00 0.00 72 1020.0
20260902060016 51 0 0.0 0.0 0.00 0.00 0.00 73 1019.9
20260902055018 50 0 0.0 0.0 0.00 0.00 0.00 74 1019.7
20260902054017 49 0 0.0 0.0 0.00 0.00 0.00 74 1019.6
20260902053517 49 0 0.0 0.0 0.00 0.00 0.00 75 1019.6
20260902052517 49 0 0.0 0.0 0.00 0.00 0.00 76 1019.5
20260902051517 49 0 0.0 0.0 0.00 0.00 0.00 75 1019.5
20260902051017 49 0 0.0 0.0 0.00 0.00 0.00 75 1019.4
20260902050517 48 0 0.0 0.0 0.00 0.00 0.00 76 1019.2
20260902050017 48 0 0.0 0.0 0.00 0.00 0.00 76 1019.4
20260902045517 48 0 0.0 0.0 0.00 0.00 0.00 76 1019.4
20260902045017 49 0 0.0 0.0 0.00 0.00 0.00 76 1019.5
20260902044517 49 0 0.0 0.0 0.00 0.00 0.00 76 1019.3
20260902044017 49 0 0.0 0.0 0.00 0.00 0.00 76 1019.3
20260902043517 48 0 0.0 0.0 0.00 0.00 0.00 76 1019.3
20260902043039 48 0 0.0 0.0 0.00 0.00 0.00 77 1019.4
20260902042519 49 0 0.0 0.0 0.00 0.00 0.00 77 1019.3
20260902042018 49 0 0.0 0.0 0.00 0.00 0.00 77 1019.3
20260902041517 49 0 0.0 0.0 0.00 0.00 0.00 77 1019.3
20260902041016 49 0 0.0 0.0 0.00 0.00 0.00 77 1019.3
20260902040517 49 0 0.0 0.0 0.00 0.00 0.00 77 1019.3
20260902040017 49 0 0.0 0.0 0.00 0.00 0.00 77 1019.3
20260902035517 49 0 0.0 0.0 0.00 0.00 0.00 77 1019.3
20260902035017 49 0 0.0 0.0 0.00 0.00 0.00 76 1019.3
20260902034518 49 0 0.0 0.0 0.00 0.00 0.00 76 1019.3
20260902034018 49 0 0.0 0.0 0.00 0.00 0.00 76 1019.3
20260902033517 49 0 0.0 0.0 0.00 0.00 0.00 76 1019.3
20260902033017 49 0 0.0 0.0 0.00 0.00 0.00 76 1019.3
20260902032533 49 0 0.0 0.0 0.00 0.00 0.00 77 1019.3
20260902032017 49 0 0.0 0.0 0.00 0.00 0.00 77 1019.4
20260902031519 49 0 0.0 0.0 0.00 0.00 0.00 77 1019.4
20260902031018 49 0 0.0 0.0 0.00 0.00 0.00 78 1019.4
20260902030518 49 0 0.0 0.0 0.00 0.00 0.00 78 1019.4
20260902030018 49 0 0.0 0.0 0.00 0.00 0.00 78 1019.5
20260902025516 49 0 0.0 0.0 0.00 0.00 0.00 78 1019.4
20260902025018 49 0 0.0 0.0 0.00 0.00 0.00 78 1019.4
20260902024517 49 0 0.0 0.0 0.00 0.00 0.00 78 1019.5
20260902024017 49 0 0.0 0.0 0.00 0.00 0.00 79 1019.5
20260902023518 49 0 0.0 0.0 0.00 0.00 0.00 79 1019.5
20260902023016 50 0 0.0 0.0 0.00 0.00 0.00 79 1019.5
20260902022546 50 0 0.0 0.0 0.00 0.00 0.00 78 1019.4
20260902022018 50 0 0.0 0.0 0.00 0.00 0.00 78 1019.5
20260902021518 50 0 0.0 0.0 0.00 0.00 0.00 78 1019.4
20260902020017 50 0 0.0 0.0 0.00 0.00 0.00 79 1019.7
20260902015517 50 0 0.0 0.0 0.00 0.00 0.00 79 1019.7
20260902015016 50 0 0.0 0.0 0.00 0.00 0.00 79 1020.0
20260902014017 50 0 0.0 0.0 0.00 0.00 0.00 78 1019.8
20260902013517 50 0 0.0 0.0 0.00 0.00 0.00 78 1019.9
20260902013017 51 0 0.0 0.0 0.00 0.00 0.00 78 1019.8
20260902012517 50 0 0.0 0.0 0.00 0.00 0.00 78 1019.8
20260902012018 50 0 0.0 0.0 0.00 0.00 0.00 78 1019.8
20260902011517 50 0 0.0 0.0 0.00 0.00 0.00 78 1019.8
20260902011035 50 0 0.0 0.0 0.00 0.00 0.00 78 1019.8
20260902010532 50 0 0.0 0.0 0.00 0.00 0.00 78 1019.8
20260902010017 50 0 0.0 0.0 0.00 0.00 0.00 79 1019.8
20260902005519 50 0 0.0 0.0 0.00 0.00 0.00 79 1019.8
20260902004517 51 0 0.0 0.0 0.00 0.00 0.00 80 1019.9
20260902004017 51 0 0.0 0.0 0.00 0.00 0.00 80 1019.9
20260902003517 51 0 0.0 0.0 0.00 0.00 0.00 81 1020.0
20260902003017 51 0 0.0 0.0 0.00 0.00 0.00 81 1020.0
20260902002017 51 0 0.0 0.0 0.00 0.00 0.00 81 1020.1
20260902001517 52 0 0.0 0.0 0.00 0.00 0.00 81 1020.2
20260902001032 52 0 0.0 0.0 0.00 0.00 0.00 81 1020.2
20260901235517 52 0 0.0 0.0 0.00 0.00 0.00 81 1020.3
20260901235017 53 0 0.0 0.0 0.00 0.00 0.00 81 1020.3
20260901234517 53 0 0.0 0.0 0.00 0.00 0.00 81 1020.4
20260901234017 53 0 0.0 0.0 0.00 0.00 0.00 81 1020.4
20260901233017 53 0 0.0 0.0 0.00 0.00 0.00 81 1020.4
20260901232544 53 0 0.0 0.0 0.00 0.00 0.00 82 1020.5
20260901232017 53 0 0.0 0.0 0.00 0.00 0.00 83 1020.4
20260901231517 53 0 0.0 0.0 0.00 0.00 0.00 83 1020.4
20260901231017 53 0 0.0 0.0 0.00 0.00 0.00 84 1020.4
20260901230017 54 0 0.0 0.0 0.00 0.00 0.00 85 1020.7
20260901225517 55 0 0.0 0.0 0.00 0.00 0.00 86 1020.9
20260901224017 55 0 0.0 0.0 0.00 0.00 0.00 86 1021.0
20260901222517 55 0 0.0 0.0 0.00 0.00 0.00 86 1021.0
20260901222017 56 0 0.0 0.0 0.00 0.00 0.00 86 1021.0
20260901221536 56 0 0.0 0.0 0.00 0.00 0.00 86 1021.1
20260901221017 56 0 0.0 0.0 0.00 0.00 0.00 86 1021.1
20260901220517 56 0 0.0 0.0 0.00 0.00 0.00 86 1021.1
20260901220017 56 0 0.0 0.0 0.00 0.00 0.00 87 1021.2
20260901215517 57 0 0.0 0.0 0.00 0.00 0.00 87 1021.3
20260901215017 57 0 0.0 0.0 0.00 0.00 0.00 87 1021.2
20260901214516 57 0 0.0 0.0 0.00 0.00 0.00 87 1021.3
20260901214017 58 0 0.0 0.0 0.00 0.00 0.00 88 1021.3
20260901213519 58 0 0.0 0.0 0.00 0.00 0.00 88 1021.3
20260901213045 58 0 0.0 0.0 0.00 0.00 0.00 88 1021.3
20260901212517 58 0 0.0 0.0 0.00 0.00 0.00 88 1021.3
20260901211517 58 0 0.0 0.0 0.00 0.00 0.00 89 1021.3
20260901211033 59 0 0.0 0.0 0.00 0.00 0.00 89 1021.4
20260901210519 59 0 0.0 0.0 0.00 0.00 0.00 89 1021.4
20260901210017 59 0 0.0 0.0 0.00 0.00 0.00 88 1021.3
20260901205517 59 0 0.0 0.0 0.00 0.00 0.00 88 1021.3
20260901205017 59 0 0.0 0.0 0.00 0.00 0.00 88 1021.2
20260901204517 59 0 0.0 0.0 0.00 0.00 0.00 88 1021.2
20260901204017 59 0 0.0 0.0 0.00 0.00 0.00 88 1021.3
20260901203018 59 0 0.0 0.0 0.00 0.00 0.00 89 1021.0
20260901202518 59 0 0.0 0.0 0.00 0.00 0.00 89 1021.2
20260901202017 59 0 0.0 0.0 0.00 0.00 0.00 89 1021.0
20260901201517 59 0 0.0 0.0 0.00 0.00 0.00 89 1021.0
20260901201017 60 0 0.0 0.0 0.00 0.00 0.00 89 1021.1
20260901200518 60 0 0.0 0.0 0.00 0.00 0.00 89 1021.1
20260901200017 60 0 0.0 0.0 0.00 0.00 0.00 89 1021.1
20260901195517 60 0 0.0 0.0 0.00 0.00 0.00 89 1021.0
20260901195017 60 0 0.0 0.0 0.00 0.00 0.00 89 1021.1
20260901194017 60 0 0.0 0.0 0.00 0.00 0.00 90 1020.9
20260901193018 60 0 0.0 0.0 0.00 0.00 0.00 90 1021.0
20260901192517 61 0 0.0 0.0 0.00 0.00 0.00 90 1021.0
20260901191517 62 0 0.0 0.0 0.00 0.00 0.00 90 1021.1
20260901191017 62 0 0.0 0.0 0.00 0.00 0.00 90 1021.1
20260901190518 62 0 0.0 0.0 0.00 0.00 0.00 90 1021.2
20260901190017 63 0 0.0 0.0 0.00 0.00 0.00 90 1021.2
20260901184517 64 0 0.0 0.0 0.00 0.00 0.00 89 1021.3
20260901184016 65 0 0.0 0.0 0.00 0.00 0.00 88 1021.4
20260901183517 65 0 0.0 0.0 0.00 0.00 0.00 87 1021.4
20260901183017 66 0 0.0 0.0 0.00 0.00 0.00 87 1021.4
20260901182517 66 0 0.0 0.0 0.00 0.00 0.00 87 1021.4
20260901182017 66 0 0.0 0.0 0.00 0.00 0.00 87 1021.3
20260901181017 67 0 0.0 0.0 0.00 0.00 0.00 86 1021.6
20260901180518 68 0 0.0 0.0 0.00 0.00 0.00 85 1021.5
20260901180017 69 0 0.0 0.0 0.00 0.00 0.00 85 1021.6
20260901175516 69 0 0.0 0.0 0.00 0.00 0.00 84 1021.7
20260901175016 70 0 0.0 0.0 0.00 0.00 0.00 83 1021.7
20260901174517 70 0 0.0 0.0 0.00 0.00 0.00 83 1021.7
20260901174018 70 0 0.0 0.0 0.00 0.00 0.00 82 1021.8
20260901173516 71 0 0.0 0.0 0.00 0.00 0.00 82 1021.8
20260901173017 72 0 0.0 0.0 0.00 0.00 0.00 81 1022.0
20260901172517 73 0 0.0 0.0 0.00 0.00 0.00 81 1022.0
20260901172017 73 0 0.0 0.0 0.00 0.00 0.00 80 1021.9
20260901171517 73 0 0.0 0.0 0.00 0.00 0.00 81 1022.1
20260901171017 73 0 0.0 0.0 0.00 0.00 0.00 80 1022.0
20260901170516 73 0 0.0 0.0 0.00 0.00 0.00 80 1022.1
20260901170017 72 0 0.0 0.0 0.00 0.00 0.00 81 1022.0
20260901165516 72 0 0.0 0.0 0.00 0.00 0.00 80 1022.0
20260901165017 72 0 0.0 0.0 0.00 0.00 0.00 80 1022.0
20260901164517 73 0 0.0 0.0 0.00 0.00 0.00 80 1022.0
20260901164017 73 0 0.0 0.0 0.00 0.00 0.00 80 1022.1
20260901163017 74 0 0.0 0.0 0.00 0.00 0.00 79 1022.4
20260901162517 74 0 0.0 0.0 0.00 0.00 0.00 79 1022.4
20260901162017 74 0 0.0 0.0 0.00 0.00 0.00 79 1022.2
20260901161517 74 0 0.0 0.0 0.00 0.00 0.00 78 1022.1
20260901161017 74 0 0.0 0.0 0.00 0.00 0.00 78 1022.4
20260901160518 74 0 0.0 0.0 0.00 0.00 0.00 78 1022.2
20260901160017 75 0 0.0 0.0 0.00 0.00 0.00 79 1022.4
20260901155517 75 0 0.0 0.0 0.00 0.00 0.00 78 1022.2
20260901154518 75 0 0.0 0.0 0.00 0.00 0.00 79 1022.1
20260901154018 74 0 0.0 0.0 0.00 0.00 0.00 79 1022.1
20260901153017 74 0 0.0 0.0 0.00 0.00 0.00 78 1022.0
20260901152518 74 0 0.0 0.0 0.00 0.00 0.00 78 1022.0
20260901152018 74 0 0.0 0.0 0.00 0.00 0.00 78 1022.0
20260901151545 74 0 0.0 0.0 0.00 0.00 0.00 78 1022.0
20260901151018 75 0 0.0 0.0 0.00 0.00 0.00 77 1022.2
20260901150517 75 0 0.0 0.0 0.00 0.00 0.00 78 1022.2
20260901150017 75 0 0.0 0.0 0.00 0.00 0.00 78 1022.1
20260901145519 74 0 0.0 0.0 0.00 0.00 0.00 78 1022.1
20260901145018 74 0 0.0 0.0 0.00 0.00 0.00 79 1022.1
20260901144019 74 0 0.0 0.0 0.00 0.00 0.00 79 1022.1
20260901143517 74 0 0.0 0.0 0.00 0.00 0.00 79 1022.1
20260901140019 73 0 0.0 0.0 0.00 0.00 0.00 79 1021.9
20260901135517 73 0 0.0 0.0 0.00 0.00 0.00 79 1021.9
20260901135018 73 0 0.0 0.0 0.00 0.00 0.00 79 1021.9